QPF
0.00 0.00 0.00 0.00 0.00 0.00 0.00 0.00 0.00 0.00 0.00 0.00 0.00 0.00 0.00 0.00 0.00 0.00 0.00 0.00 0.00 0.00 0.00 0.00 0.00 0.00 0.00 0.00 0.00 0.00 0.00 0.00 0.00 0.00 0.00 0.00 0.00 0.00 0.00 0.00 0.00 0.00 0.00 0.00 0.00 0.00 0.00
0.00 0.00 0.00 0.00 0.00 0.00 0.00 0.00 0.00 0.00 0.00 0.00 0.00 0.00 0.00 0.00 0.00 0.00 0.00 0.00 0.00 0.00 0.00 0.00 0.00 0.00 0.00 0.00 0.00 0.00 0.00 0.00 0.00 0.00 0.00 0.00 0.00 0.00 0.00 0.00 0.00 0.00 0.00 0.00 0.00 0.00 0.00
0.00 0.00 0.00 0.00 0.00 0.00 0.00 0.00 0.00 0.00 0.00 0.00 0.00 0.00 0.00 0.00 0.00 0.00 0.00 0.00 0.00 0.00 0.00 0.00 0.00 0.00 0.00 0.00 0.00 0.00 0.00 0.00 0.00 0.00 0.00 0.00 0.00 0.00 0.00 0.00 0.00 0.00 0.00 0.00 0.00 0.00 0.00
0.00 0.00 0.00 0.00 0.00 0.00 0.00 0.00 0.00 0.00 0.00 0.00 0.00 0.00 0.00 0.00 0.00 0.00 0.00 0.00 0.00 0.00 0.00 0.00 0.00 0.00 0.00 0.00 0.00 0.00 0.00 0.00 0.00 0.00 0.00 0.00 0.00 0.00 0.00 0.00 0.00 0.00 0.00 0.00 0.00 0.00 0.00
0.00 0.00 0.00 0.00 0.00 0.00 0.00 0.00 0.00 0.00 0.00 0.00 0.00 0.00 0.00 0.00 0.00 0.00 0.00 0.00 0.00 0.00 0.00 0.00 0.00 0.00 0.00 0.00 0.00 0.00 0.00 0.00 0.00 0.00 0.00 0.00 0.00 0.00 0.00 0.00 0.00 0.00 0.00 0.00 0.00 0.00 0.00
0.00 0.00 0.00 0.00 0.00 0.00 0.00 0.00 0.00 0.00 0.00 0.00 0.00 0.00 0.00 0.00 0.00 0.00 0.00 0.00 0.00 0.00 0.00 0.00 0.00 0.00 0.00 0.00 0.00 0.00 0.00 0.00 0.00 0.00 0.00 0.00 0.00 0.00 0.00 0.00 0.00 0.00 0.00 0.00 0.00 0.00 0.00
0.00 0.00 0.00 0.00 0.00 0.00 0.00 0.00 0.00 0.00 0.00 0.00 0.00 0.00 0.00 0.00 0.00 0.00 0.00 0.00 0.00 0.00 0.00 0.00 0.00 0.00 0.00 0.00 0.00 0.00 0.00 0.00 0.00 0.00 0.00 0.00 0.00 0.00 0.00 0.00 0.00 0.00 0.00 0.00 0.00 0.00 0.00
0.00 0.00 0.00 0.00 0.00 0.00 0.00 0.00 0.00 0.00 0.00 0.00 0.00 0.00 0.00 0.00 0.00 0.00 0.00 0.00 0.00 0.00 0.00 0.00 0.00 0.00 0.00 0.00 0.00 0.00 0.00 0.00 0.00 0.00 0.00 0.00 0.00 0.00 0.00 0.00 0.00 0.00 0.00 0.00 0.00 0.00 0.00
0.00 0.00 0.00 0.00 0.00 0.00 0.00 0.00 0.00 0.00 0.00 0.00 0.00 0.00 0.00 0.00 0.00 0.00 0.00 0.00 0.00 0.00 0.00 0.00 0.00 0.00 0.00 0.00 0.00 0.00 0.00 0.00 0.00 0.00 0.00 0.00 0.00 0.00 0.00 0.00 0.00 0.00 0.00 0.00 0.00 0.00 0.00
0.00 0.00 0.00 0.00 0.00 0.00 0.00 0.00 0.00 0.00 0.00 0.00 0.00 0.00 0.00 0.00 0.00 0.00 0.00 0.00 0.00 0.00 0.00 0.00 0.00 0.00 0.00 0.00 0.00 0.00 0.00 0.00 0.00 0.00 0.00 0.00 0.00 0.00 0.00 0.00 0.00 0.00 0.00 0.00 0.00 0.00 0.00
0.00 0.00 0.00 0.00 0.00 0.00 0.00 0.00 0.00 0.00 0.00 0.00 0.00 0.00 0.00 0.00 0.00 0.00 0.00 0.00 0.00 0.00 0.00 0.00 0.00 0.00 0.00 0.00 0.00 0.00 0.00 0.00 0.00 0.00 0.00 0.00 0.00 0.00 0.00 0.00 0.00 0.00 0.00 0.00 0.00 0.00 0.00
0.00 0.00 0.00 0.00 0.00 0.00 0.00 0.00 0.00 0.00 0.00 0.00 0.00 0.00 0.00 0.00 0.00 0.00 0.00 0.00 0.00 0.00 0.00 0.00 0.00 0.00 0.00 0.00 0.00 0.00 0.00 0.00 0.00 0.00 0.00 0.00 0.00 0.00 0.00 0.00 0.00 0.00 0.00 0.00 0.00 0.00 0.00
0.00 0.00 0.00 0.00 0.00 0.00 0.00 0.00 0.00 0.00 0.00 0.00 0.00 0.00 0.00 0.00 0.00 0.00 0.00 0.00 0.00 0.00 0.00 0.00 0.00 0.00 0.00 0.00 0.00 0.00 0.00 0.00 0.00 0.00 0.00 0.00 0.00 0.00 0.00 0.00 0.00 0.00 0.00 0.00 0.00 0.00 0.00
0.00 0.00 0.00 0.00 0.00 0.00 0.00 0.00 0.00 0.00 0.00 0.00 0.00 0.00 0.00 0.00 0.00 0.00 0.00 0.00 0.00 0.00 0.00 0.00 0.00 0.00 0.00 0.00 0.00 0.00 0.00 0.00 0.00 0.00 0.00 0.00 0.00 0.00 0.00 0.00 0.00 0.00 0.00 0.00 0.00 0.00 0.00
0.00 0.00 0.00 0.00 0.00 0.00 0.00 0.00 0.00 0.00 0.00 0.00 0.00 0.00 0.00 0.00 0.00 0.00 0.00 0.00 0.00 0.00 0.00 0.00 0.00 0.00 0.00 0.00 0.00 0.00 0.00 0.00 0.00 0.00 0.00 0.00 0.00 0.00 0.00 0.00 0.00 0.00 0.00 0.00 0.00 0.00 0.00
0.00 0.00 0.00 0.00 0.00 0.00 0.00 0.00 0.00 0.00 0.00 0.00 0.00 0.00 0.00 0.00 0.00 0.00 0.00 0.00 0.00 0.00 0.00 0.00 0.00 0.00 0.00 0.00 0.00 0.00 0.00 0.00 0.00 0.00 0.00 0.00 0.00 0.00 0.00 0.00 0.00 0.00 0.00 0.00 0.00 0.00 0.00
0.00 0.00 0.00 0.00 0.00 0.00 0.00 0.00 0.00 0.00 0.00 0.00 0.00 0.00 0.00 0.00 0.00 0.00 0.00 0.00 0.00 0.00 0.00 0.00 0.00 0.00 0.00 0.00 0.00 0.00 0.00 0.00 0.00 0.00 0.00 0.00 0.00 0.00 0.00 0.00 0.00 0.00 0.00 0.00 0.00 0.00 0.00
0.00 0.00 0.00 0.00 0.00 0.00 0.00 0.00 0.00 0.00 0.00 0.00 0.00 0.00 0.00 0.00 0.00 0.00 0.00 0.00 0.00 0.00 0.00 0.00 0.00 0.00 0.00 0.00 0.00 0.00 0.00 0.00 0.00 0.00 0.00 0.00 0.00 0.00 0.00 0.00 0.00 0.00 0.00 0.00 0.00 0.00 0.00
0.00 0.00 0.00 0.00 0.00 0.00 0.00 0.00 0.00 0.00 0.00 0.00 0.00 0.00 0.00 0.00 0.00 0.00 0.00 0.00 0.00 0.00 0.00 0.00 0.00 0.00 0.00 0.00 0.00 0.00 0.00 0.00 0.00 0.00 0.00 0.00 0.00 0.00 0.00 0.00 0.00 0.00 0.00 0.00 0.00 0.00 0.00
0.00 0.00 0.00 0.00 0.00 0.00 0.00 0.00 0.00 0.00 0.00 0.00 0.00 0.00 0.00 0.00 0.00 0.00 0.00 0.00 0.00 0.00 0.00 0.00 0.00 0.00 0.00 0.00 0.00 0.00 0.00 0.00 0.00 0.00 0.00 0.00 0.00 0.00 0.00 0.00 0.00 0.00 0.00 0.00 0.00 0.00 0.00
0.00 0.00 0.00 0.00 0.00 0.00 0.00 0.00 0.00 0.00 0.00 0.00 0.00 0.00 0.00 0.00 0.00 0.00 0.00 0.00 0.00 0.00 0.00 0.00 0.00 0.00 0.00 0.00 0.00 0.00 0.00 0.00 0.00 0.00 0.00 0.00 0.00 0.00 0.00 0.00 0.00 0.00 0.00 0.00 0.00 0.00 0.00
0.00 0.00 0.00 0.00 0.00 0.00 0.00 0.00 0.00 0.00 0.00 0.00 0.00 0.00 0.00 0.00 0.00 0.00 0.00 0.00 0.00 0.00 0.00 0.00 0.00 0.00 0.00 0.00 0.00 0.00 0.00 0.00 0.00 0.00 0.00 0.00 0.00 0.00 0.00 0.00 0.00 0.00 0.00 0.00 0.00 0.00 0.00
0.00 0.00 0.00 0.00 0.00 0.00 0.00 0.00 0.00 0.00 0.00 0.00 0.00 0.00 0.00 0.00 0.00 0.00 0.00 0.00 0.00 0.00 0.00 0.00 0.00 0.00 0.00 0.00 0.00 0.00 0.00 0.00 0.00 0.00 0.00 0.00 0.00 0.00 0.00 0.00 0.00 0.00 0.00 0.00 0.00 0.00 0.00
0.00 0.00 0.00 0.00 0.00 0.00 0.00 0.00 0.00 0.00 0.00 0.00 0.00 0.00 0.00 0.00 0.00 0.00 0.00 0.00 0.00 0.00 0.00 0.00 0.00 0.00 0.00 0.00 0.00 0.00 0.00 0.00 0.00 0.00 0.00 0.00 0.00 0.00 0.00 0.00 0.00 0.00 0.00 0.00 0.00 0.00 0.00
0.00 0.00 0.00 0.00 0.00 0.00 0.00 0.00 0.00 0.00 0.00 0.00 0.00 0.00 0.00 0.00 0.00 0.00 0.00 0.00 0.00 0.00 0.00 0.00 0.00 0.00 0.00 0.00 0.00 0.00 0.00 0.00 0.00 0.00 0.00 0.00 0.00 0.00 0.00 0.00 0.00 0.00 0.00 0.00 0.00 0.00 0.00
0.00 0.00 0.00 0.00 0.00 0.00 0.00 0.00 0.00 0.00 0.00 0.00 0.00 0.00 0.00 0.00 0.00 0.00 0.00 0.00 0.00 0.00 0.00 0.00 0.00 0.00 0.00 0.00 0.00 0.00 0.00 0.00 0.00 0.00 0.00 0.00 0.00 0.00 0.00 0.00 0.00 0.00 0.00 0.00 0.00 0.00 0.00
0.00 0.00 0.00 0.00 0.00 0.00 0.00 0.00 0.00 0.00 0.00 0.00 0.00 0.00 0.00 0.00 0.00 0.00 0.00 0.00 0.00 0.00 0.00 0.00 0.00 0.00 0.00 0.00 0.00 0.00 0.00 0.00 0.00 0.00 0.00 0.00 0.00 0.00 0.00 0.00 0.00 0.00 0.00 0.00 0.00 0.00 0.00
0.00 0.00 0.00 0.00 0.00 0.00 0.00 0.00 0.00 0.00 0.00 0.00 0.00 0.00 0.00 0.00 0.00 0.00 0.00 0.00 0.00 0.00 0.02 0.01 0.01 0.01 0.00 0.00 0.00 0.00 0.00 0.00 0.00 0.00 0.00 0.00 0.00 0.00 0.00 0.00 0.00 0.00 0.00 0.00 0.00 0.00 0.00
0.00 0.00 0.00 0.00 0.00 0.00 0.00 0.00 0.00 0.00 0.00 0.00 0.00 0.00 0.00 0.00 0.00 0.00 0.00 0.00 0.00 0.00 0.00 0.00 0.00 0.03 0.03 0.02 0.02 0.01 0.00 0.00 0.00 0.00 0.00 0.00 0.00 0.00 0.00 0.00 0.00 0.00 0.00 0.00 0.00 0.00 0.00
MSLP
1019.97 1019.53 1019.02 1018.59 1018.19 1017.82 1017.58 1017.18 1016.84 1016.50 1016.11 1015.82 1015.58 1015.36 1015.07 1014.76 1014.43 1014.15 1013.86 1013.62 1013.32 1013.04 1012.76 1012.46 1012.27 1012.03 1011.77 1010.91 1007.82 1005.58 1005.44 1005.24 1005.82 1006.41 1006.64 1006.66 1006.68 1006.87 1006.90 1006.76 1006.32 1006.15 1005.60 1005.20 1005.27 1005.86 1005.98
1020.01 1019.62 1019.21 1018.76 1018.33 1017.91 1017.51 1017.15 1016.73 1016.41 1016.06 1015.70 1015.41 1015.13 1014.92 1014.65 1014.30 1013.91 1013.59 1013.29 1013.08 1012.86 1012.64 1012.42 1012.17 1011.94 1011.55 1009.53 1005.80 1005.66 1005.86 1005.82 1006.04 1006.30 1006.56 1006.50 1006.56 1006.61 1006.82 1006.70 1006.42 1005.80 1005.37 1004.90 1005.42 1005.82 1006.10
1020.05 1019.61 1019.19 1018.75 1018.34 1017.96 1017.57 1017.13 1016.68 1016.34 1015.99 1015.65 1015.30 1014.92 1014.60 1014.31 1014.03 1013.70 1013.29 1012.96 1012.66 1012.49 1012.41 1012.27 1012.07 1011.80 1010.87 1007.20 1005.64 1005.74 1005.75 1005.75 1005.96 1006.09 1006.54 1006.48 1006.39 1006.52 1006.71 1006.40 1005.93 1005.64 1005.72 1005.17 1005.38 1005.53 1006.03
1020.15 1019.67 1019.22 1018.76 1018.32 1017.94 1017.56 1017.13 1016.66 1016.28 1015.90 1015.52 1015.17 1014.83 1014.42 1014.07 1013.72 1013.43 1013.07 1012.61 1012.20 1011.98 1011.97 1011.95 1011.88 1011.59 1009.27 1005.98 1005.73 1005.62 1005.64 1005.72 1005.96 1006.05 1006.16 1006.16 1006.29 1006.63 1006.94 1006.66 1006.36 1006.45 1006.25 1006.02 1005.76 1005.74 1005.95
1020.15 1019.66 1019.19 1018.72 1018.26 1017.88 1017.49 1017.05 1016.62 1016.21 1015.81 1015.35 1014.99 1014.68 1014.32 1013.96 1013.54 1013.18 1012.76 1012.18 1011.65 1011.64 1011.75 1011.76 1011.74 1011.08 1008.14 1005.71 1005.64 1005.00 1005.14 1005.53 1005.88 1006.07 1006.10 1006.13 1006.45 1007.17 1007.17 1007.32 1007.42 1007.51 1007.39 1007.08 1006.30 1005.90 1005.86
1020.07 1019.60 1019.12 1018.62 1018.15 1017.76 1017.33 1016.87 1016.45 1016.07 1015.64 1015.16 1014.80 1014.51 1014.19 1013.84 1013.49 1013.04 1012.49 1011.88 1011.63 1011.71 1011.83 1011.70 1011.39 1010.95 1007.48 1005.84 1005.11 1004.98 1005.15 1005.28 1005.69 1006.11 1006.42 1006.47 1007.30 1007.88 1008.28 1008.16 1008.48 1008.43 1008.11 1007.47 1006.98 1006.16 1006.36
1019.99 1019.51 1019.02 1018.51 1018.05 1017.62 1017.16 1016.72 1016.22 1015.82 1015.44 1014.97 1014.60 1014.31 1014.00 1013.64 1013.41 1013.08 1012.56 1012.07 1012.18 1011.93 1011.32 1009.68 1009.15 1008.31 1006.79 1005.64 1005.06 1004.94 1004.95 1005.32 1005.65 1006.23 1006.62 1007.06 1008.02 1008.21 1008.15 1008.13 1008.17 1008.30 1008.16 1007.78 1006.60 1006.15 1006.73
1019.86 1019.38 1018.93 1018.43 1017.95 1017.45 1016.98 1016.52 1016.08 1015.65 1015.22 1014.78 1014.40 1014.08 1013.76 1013.42 1013.20 1012.96 1013.10 1012.20 1010.72 1010.80 1009.89 1008.30 1008.10 1007.58 1006.67 1006.06 1005.63 1004.97 1004.83 1005.42 1005.96 1006.62 1006.89 1007.60 1007.68 1007.45 1007.67 1007.70 1007.88 1008.02 1007.85 1007.53 1006.67 1006.28 1007.04
1019.78 1019.31 1018.81 1018.30 1017.78 1017.29 1016.83 1016.36 1015.86 1015.37 1014.92 1014.56 1014.20 1013.84 1013.46 1013.14 1012.83 1012.86 1012.44 1011.02 1010.22 1010.24 1009.89 1007.67 1007.13 1006.64 1005.91 1005.89 1005.51 1004.92 1004.90 1005.28 1006.06 1006.83 1007.14 1007.40 1007.36 1007.15 1007.24 1007.44 1007.67 1007.73 1007.57 1007.57 1007.61 1007.48 1007.75
1019.78 1019.28 1018.70 1018.16 1017.57 1017.08 1016.60 1016.09 1015.62 1015.16 1014.71 1014.31 1013.97 1013.60 1013.18 1012.82 1013.09 1012.65 1011.68 1010.33 1010.08 1009.96 1009.62 1007.34 1006.36 1005.10 1005.25 1005.17 1005.06 1004.47 1004.45 1005.07 1005.96 1006.56 1007.25 1007.31 1006.86 1007.03 1007.19 1007.45 1007.64 1007.44 1007.10 1007.38 1007.36 1008.19 1008.76
1019.72 1019.16 1018.57 1017.99 1017.43 1016.86 1016.38 1015.86 1015.36 1014.88 1014.42 1013.99 1013.62 1013.28 1013.00 1012.98 1012.90 1012.34 1010.72 1010.25 1009.91 1009.84 1008.52 1006.13 1005.31 1004.32 1004.64 1004.73 1004.52 1004.54 1004.32 1004.72 1005.68 1006.33 1006.90 1007.08 1006.77 1006.88 1006.96 1007.01 1007.12 1007.07 1007.02 1007.50 1007.70 1008.49 1009.10
1019.64 1019.07 1018.49 1017.88 1017.27 1016.69 1016.16 1015.63 1015.00 1014.51 1014.03 1013.58 1013.14 1012.89 1012.79 1012.79 1012.61 1011.05 1010.43 1010.17 1009.86 1009.63 1007.21 1005.27 1004.57 1004.36 1004.60 1004.46 1004.34 1004.54 1004.57 1004.60 1005.49 1006.32 1006.73 1006.94 1006.65 1006.44 1006.29 1006.40 1006.70 1006.76 1007.37 1008.16 1009.08 1009.78 1010.53
1019.59 1018.99 1018.43 1017.79 1017.07 1016.46 1015.90 1015.27 1014.69 1014.09 1013.55 1012.92 1012.38 1012.10 1012.36 1012.02 1011.32 1010.56 1010.40 1010.04 1009.98 1008.59 1006.24 1005.22 1004.63 1004.49 1004.56 1004.72 1004.65 1004.64 1005.06 1005.53 1006.15 1006.96 1007.57 1007.38 1006.86 1006.23 1006.05 1006.23 1006.40 1007.04 1008.52 1009.58 1010.59 1011.35 1011.58
1019.50 1018.92 1018.31 1017.58 1016.89 1016.22 1015.56 1014.93 1014.28 1013.69 1012.96 1012.24 1011.51 1010.93 1011.09 1010.94 1010.82 1010.73 1010.28 1010.09 1009.58 1007.71 1006.26 1004.91 1004.49 1004.58 1004.74 1004.73 1004.95 1005.06 1005.53 1006.32 1006.61 1007.03 1008.15 1007.98 1007.28 1006.27 1005.84 1005.98 1006.47 1007.24 1008.46 1009.93 1011.22 1012.28 1011.92
1019.46 1018.86 1018.16 1017.46 1016.78 1016.05 1015.30 1014.60 1013.98 1013.27 1012.52 1011.69 1011.22 1011.26 1011.23 1010.13 1010.59 1010.99 1010.37 1010.16 1008.94 1007.52 1006.19 1005.24 1004.62 1004.63 1004.80 1004.71 1004.92 1005.38 1005.84 1006.40 1006.48 1006.78 1007.55 1007.88 1007.31 1006.12 1005.59 1005.44 1005.99 1007.33 1008.35 1009.12 1010.98 1012.50 1012.34
1019.38 1018.75 1018.14 1017.46 1016.69 1015.90 1015.16 1014.42 1013.73 1012.94 1012.06 1011.35 1011.18 1011.04 1010.54 1009.97 1010.31 1010.57 1010.20 1009.82 1008.66 1007.29 1006.04 1005.30 1005.12 1004.78 1004.89 1004.97 1005.28 1005.68 1006.12 1005.52 1006.03 1006.29 1006.36 1007.48 1007.48 1006.33 1005.44 1005.40 1005.91 1006.50 1007.62 1009.16 1010.73 1012.28 1012.60
1019.25 1018.66 1018.04 1017.38 1016.65 1015.87 1015.04 1014.29 1013.54 1012.68 1011.62 1010.88 1010.92 1010.59 1010.44 1010.15 1010.49 1010.14 1010.38 1009.69 1008.30 1006.71 1005.87 1005.51 1005.26 1005.04 1004.92 1004.98 1005.07 1005.50 1005.69 1005.14 1004.98 1005.85 1006.34 1007.38 1007.74 1007.10 1006.18 1005.92 1006.08 1006.98 1007.70 1009.19 1010.48 1011.24 1011.75
1019.17 1018.60 1017.94 1017.28 1016.56 1015.81 1015.06 1014.26 1013.46 1012.50 1011.43 1010.78 1010.73 1010.76 1010.43 1010.50 1010.59 1011.12 1010.33 1009.06 1007.76 1006.55 1005.78 1005.47 1005.02 1004.87 1004.70 1004.59 1004.92 1005.22 1004.92 1004.16 1003.74 1004.87 1006.46 1006.80 1007.65 1007.92 1007.00 1005.96 1005.97 1006.25 1006.87 1008.05 1009.93 1010.97 1011.15
1019.10 1018.48 1017.86 1017.21 1016.52 1015.78 1015.04 1014.26 1013.45 1012.51 1011.65 1011.32 1011.08 1011.04 1010.31 1010.27 1010.68 1010.85 1009.89 1008.84 1007.72 1006.65 1005.79 1005.36 1004.86 1004.32 1004.27 1004.47 1004.82 1004.82 1004.54 1003.75 1003.80 1004.53 1005.19 1006.37 1007.33 1007.95 1007.50 1006.71 1006.26 1006.10 1006.44 1007.31 1008.42 1009.30 1010.01
1019.00 1018.41 1017.79 1017.19 1016.54 1015.82 1015.06 1014.32 1013.50 1012.59 1011.91 1011.64 1011.22 1011.30 1010.89 1010.48 1010.58 1010.28 1009.81 1008.83 1007.68 1006.14 1005.70 1005.10 1004.66 1004.30 1004.49 1004.62 1004.76 1004.78 1004.71 1004.18 1004.12 1004.42 1004.58 1005.24 1007.18 1007.24 1007.24 1006.41 1005.65 1005.73 1005.82 1006.75 1007.66 1008.83 1009.10
1018.91 1018.34 1017.75 1017.19 1016.58 1015.86 1015.12 1014.39 1013.56 1012.72 1011.84 1011.95 1011.36 1011.24 1010.62 1010.73 1010.43 1010.14 1009.51 1008.72 1007.70 1006.58 1005.48 1005.08 1004.90 1004.70 1004.72 1005.00 1005.21 1005.10 1005.02 1004.91 1004.73 1005.02 1005.22 1005.49 1006.71 1006.78 1006.14 1005.77 1005.54 1005.29 1005.53 1006.19 1006.84 1006.98 1007.55
1018.85 1018.29 1017.71 1017.14 1016.58 1015.90 1015.21 1014.50 1013.70 1012.82 1012.07 1011.97 1012.08 1011.75 1010.90 1010.42 1009.99 1009.64 1009.26 1008.38 1007.39 1006.36 1005.86 1005.22 1005.04 1005.02 1004.96 1005.23 1005.65 1005.57 1005.58 1005.44 1005.85 1006.00 1006.21 1006.44 1006.63 1006.71 1006.10 1005.52 1005.33 1005.56 1005.33 1005.54 1005.98 1006.10 1006.29
1018.75 1018.22 1017.67 1017.13 1016.53 1015.94 1015.32 1014.75 1014.10 1013.37 1012.54 1012.70 1012.48 1011.91 1011.54 1010.57 1010.07 1009.62 1008.90 1007.88 1007.09 1006.54 1005.54 1005.42 1005.24 1005.23 1005.26 1005.63 1005.76 1005.75 1005.99 1006.08 1006.16 1006.56 1007.15 1007.45 1007.33 1007.77 1007.02 1006.02 1005.88 1005.93 1005.20 1005.33 1005.39 1005.32 1005.40
1018.64 1018.11 1017.57 1016.97 1016.40 1015.90 1015.36 1014.88 1014.43 1014.00 1013.86 1013.92 1013.67 1013.24 1012.29 1011.23 1010.20 1009.13 1008.26 1007.69 1007.19 1006.98 1006.68 1005.78 1005.58 1005.66 1005.86 1005.90 1006.25 1006.33 1006.51 1006.73 1006.65 1007.36 1007.37 1007.80 1008.02 1007.95 1007.93 1006.88 1006.53 1004.96 1004.91 1005.14 1005.50 1005.22 1004.87
1018.48 1017.94 1017.38 1016.82 1016.28 1015.78 1015.32 1014.89 1014.52 1014.22 1014.00 1013.90 1013.83 1013.66 1012.95 1011.93 1010.47 1009.05 1008.17 1007.76 1007.22 1007.04 1006.88 1006.31 1005.84 1006.18 1006.17 1006.60 1007.14 1007.53 1007.71 1007.40 1007.08 1007.31 1007.67 1007.75 1007.83 1008.57 1008.40 1007.74 1006.60 1005.27 1005.13 1005.34 1005.62 1005.00 1004.83
1018.36 1017.79 1017.23 1016.73 1016.19 1015.73 1015.27 1014.86 1014.52 1014.20 1013.91 1013.72 1013.76 1013.68 1013.28 1012.58 1010.32 1009.18 1008.36 1007.70 1007.48 1007.22 1006.95 1006.34 1006.02 1006.19 1006.51 1007.15 1007.69 1008.44 1008.48 1007.91 1007.92 1007.54 1007.66 1007.58 1008.13 1008.45 1008.73 1007.97 1007.00 1005.30 1005.26 1005.39 1005.66 1005.68 1005.16
1018.36 1017.79 1017.24 1016.68 1016.12 1015.62 1015.18 1014.75 1014.44 1014.14 1013.85 1013.74 1013.57 1013.63 1013.38 1012.71 1010.24 1009.23 1008.38 1007.66 1007.29 1007.29 1007.22 1006.86 1006.57 1006.66 1006.88 1007.86 1008.59 1009.01 1008.88 1008.63 1008.28 1007.81 1007.56 1008.19 1008.55 1008.93 1008.38 1007.71 1006.54 1005.34 1005.54 1005.76 1005.95 1006.09 1005.67
1018.26 1017.69 1017.09 1016.54 1015.99 1015.48 1015.04 1014.70 1014.33 1014.02 1013.72 1013.63 1013.52 1013.41 1013.44 1012.79 1010.59 1008.94 1008.14 1007.43 1007.16 1007.18 1007.41 1007.20 1007.23 1007.18 1007.63 1008.18 1008.70 1008.92 1009.10 1008.77 1008.67 1008.15 1008.04 1007.98 1008.66 1009.12 1008.60 1007.78 1006.60 1005.37 1005.87 1006.18 1006.01 1005.65 1005.44
1018.06 1017.49 1016.90 1016.34 1015.78 1015.28 1014.81 1014.46 1014.11 1013.84 1013.60 1013.38 1013.61 1013.27 1013.24 1013.28 1010.47 1008.84 1007.48 1006.78 1006.46 1006.39 1007.28 1007.30 1007.07 1007.10 1007.23 1007.77 1008.51 1008.94 1009.24 1009.35 1009.12 1008.66 1008.27 1008.52 1008.24 1008.30 1007.96 1007.22 1006.31 1005.90 1005.82 1005.75 1005.77 1005.92 1005.84
Thickness
5668 5670 5674 5678 5681 5684 5687 5692 5696 5701 5706 5710 5715 5720 5725 5730 5736 5741 5746 5750 5755 5759 5763 5767 5769 5772 5775 5779 5793 5830 5833 5836 5832 5823 5814 5809 5803 5800 5792 5800 5808 5803 5814 5826 5830 5821 5822
5661 5663 5666 5669 5673 5678 5682 5685 5690 5694 5700 5705 5710 5715 5720 5726 5732 5738 5743 5748 5753 5757 5761 5765 5768 5770 5775 5774 5826 5828 5828 5829 5824 5818 5812 5812 5806 5808 5800 5798 5801 5818 5820 5823 5823 5817 5821
5655 5657 5660 5663 5666 5669 5674 5678 5683 5688 5693 5699 5704 5711 5717 5723 5729 5734 5741 5748 5753 5757 5759 5763 5766 5770 5774 5793 5825 5826 5827 5825 5823 5820 5806 5815 5817 5806 5804 5798 5817 5817 5805 5816 5816 5816 5813
5649 5651 5654 5656 5659 5663 5666 5670 5676 5680 5685 5692 5698 5704 5712 5718 5725 5731 5738 5746 5753 5757 5760 5762 5765 5768 5775 5817 5821 5823 5825 5822 5822 5821 5818 5821 5821 5808 5802 5808 5806 5797 5797 5778 5809 5812 5816
5643 5646 5648 5651 5653 5656 5659 5663 5667 5673 5678 5684 5691 5698 5705 5712 5720 5727 5735 5744 5752 5756 5758 5760 5762 5767 5777 5817 5811 5826 5826 5816 5814 5816 5818 5821 5813 5795 5798 5783 5770 5774 5760 5771 5784 5812 5813
5640 5641 5643 5645 5647 5649 5653 5657 5662 5665 5671 5677 5684 5691 5698 5706 5714 5723 5732 5741 5747 5751 5753 5756 5760 5760 5792 5798 5814 5820 5823 5820 5809 5806 5802 5800 5783 5771 5766 5762 5740 5755 5758 5769 5769 5801 5807
5637 5638 5639 5641 5643 5645 5648 5651 5656 5660 5664 5670 5676 5684 5692 5700 5708 5716 5726 5734 5740 5744 5750 5764 5771 5778 5792 5804 5814 5812 5818 5811 5807 5797 5776 5786 5763 5755 5767 5776 5777 5773 5768 5764 5789 5811 5800
5634 5635 5636 5637 5638 5640 5643 5646 5650 5654 5659 5664 5669 5677 5686 5694 5702 5710 5715 5730 5747 5750 5749 5772 5774 5777 5789 5798 5787 5803 5816 5795 5789 5771 5780 5767 5757 5777 5782 5781 5778 5775 5771 5770 5788 5807 5793
5631 5632 5633 5633 5634 5634 5636 5639 5643 5648 5653 5658 5664 5671 5681 5690 5698 5705 5713 5733 5745 5747 5739 5765 5773 5777 5788 5792 5785 5790 5803 5794 5781 5770 5770 5756 5770 5782 5781 5776 5771 5773 5772 5772 5771 5788 5790
5628 5629 5630 5630 5630 5630 5631 5634 5637 5642 5647 5653 5659 5667 5676 5686 5692 5700 5716 5733 5740 5744 5720 5752 5766 5782 5788 5790 5783 5805 5807 5795 5781 5765 5764 5766 5781 5777 5772 5767 5773 5759 5788 5784 5783 5771 5749
5625 5626 5627 5628 5628 5628 5629 5631 5634 5638 5644 5650 5656 5664 5672 5679 5687 5697 5722 5728 5736 5737 5704 5762 5765 5797 5789 5781 5787 5790 5806 5795 5771 5771 5770 5760 5771 5770 5767 5771 5781 5771 5792 5784 5785 5767 5762
5623 5624 5625 5626 5626 5626 5627 5629 5634 5638 5643 5649 5655 5662 5669 5676 5685 5704 5715 5723 5729 5708 5704 5754 5767 5767 5769 5776 5782 5786 5789 5799 5788 5773 5771 5765 5782 5780 5777 5786 5787 5795 5784 5770 5757 5747 5727
5620 5621 5623 5624 5625 5625 5626 5629 5633 5638 5644 5651 5658 5666 5670 5678 5692 5703 5711 5718 5695 5689 5744 5745 5751 5760 5760 5757 5768 5775 5766 5764 5751 5737 5743 5755 5764 5783 5789 5777 5787 5780 5753 5720 5727 5716 5715
5618 5620 5622 5624 5625 5626 5628 5630 5635 5640 5647 5655 5664 5674 5678 5684 5692 5698 5709 5702 5691 5715 5722 5749 5751 5751 5747 5756 5759 5764 5755 5745 5759 5751 5724 5725 5726 5768 5788 5779 5773 5766 5754 5720 5714 5706 5722
5616 5619 5622 5624 5626 5627 5630 5633 5638 5643 5650 5659 5666 5669 5674 5688 5690 5691 5701 5678 5689 5709 5732 5736 5747 5742 5745 5756 5754 5756 5748 5740 5753 5758 5736 5721 5734 5776 5786 5792 5786 5767 5748 5763 5718 5710 5712
5615 5618 5621 5623 5626 5629 5632 5636 5641 5647 5655 5662 5666 5670 5682 5688 5690 5693 5688 5679 5697 5717 5733 5735 5724 5741 5730 5741 5745 5739 5731 5758 5758 5761 5768 5748 5733 5767 5785 5792 5787 5780 5776 5744 5725 5709 5710
5614 5617 5620 5623 5626 5630 5633 5638 5643 5649 5659 5666 5669 5679 5680 5684 5686 5690 5675 5681 5700 5723 5734 5726 5727 5732 5735 5737 5737 5729 5740 5759 5767 5759 5762 5746 5738 5747 5773 5768 5763 5761 5754 5743 5735 5723 5709
5613 5616 5619 5622 5626 5630 5634 5638 5643 5650 5659 5666 5669 5670 5677 5679 5676 5660 5674 5689 5709 5716 5729 5727 5733 5734 5737 5740 5733 5735 5745 5760 5777 5764 5748 5754 5730 5719 5741 5775 5782 5778 5767 5756 5729 5729 5714
5613 5616 5619 5622 5625 5629 5634 5638 5644 5650 5658 5662 5669 5667 5676 5679 5663 5666 5679 5691 5703 5711 5719 5726 5731 5740 5747 5743 5739 5743 5751 5772 5771 5763 5752 5751 5727 5711 5723 5749 5766 5767 5768 5760 5745 5735 5718
5612 5615 5618 5621 5624 5628 5633 5638 5643 5650 5656 5660 5670 5662 5666 5669 5665 5673 5680 5685 5692 5718 5717 5727 5731 5742 5740 5737 5741 5745 5747 5763 5767 5768 5774 5765 5724 5728 5717 5740 5764 5766 5773 5761 5753 5728 5725
5611 5614 5617 5620 5623 5627 5632 5637 5642 5649 5656 5656 5667 5667 5670 5663 5667 5671 5681 5686 5690 5697 5721 5725 5725 5730 5732 5728 5733 5741 5746 5750 5760 5760 5761 5757 5735 5734 5749 5758 5766 5773 5776 5763 5757 5759 5752
5611 5613 5616 5619 5622 5626 5630 5635 5640 5647 5653 5657 5661 5663 5665 5667 5673 5675 5666 5677 5689 5702 5708 5718 5719 5725 5729 5729 5731 5736 5743 5746 5742 5749 5751 5743 5741 5740 5752 5757 5759 5758 5770 5770 5770 5764 5761
5610 5612 5615 5617 5621 5624 5628 5632 5636 5641 5648 5645 5647 5654 5659 5667 5669 5668 5669 5683 5692 5700 5713 5717 5722 5722 5724 5729 5738 5743 5743 5741 5746 5743 5738 5738 5731 5726 5728 5752 5747 5737 5756 5765 5771 5773 5776
5610 5612 5615 5618 5621 5624 5627 5630 5633 5635 5635 5634 5633 5638 5652 5660 5665 5672 5682 5687 5690 5695 5693 5711 5719 5719 5727 5733 5732 5736 5736 5736 5741 5730 5732 5729 5725 5717 5717 5735 5712 5754 5769 5768 5760 5771 5776
5610 5613 5616 5619 5621 5624 5626 5628 5630 5631 5632 5632 5631 5634 5643 5648 5659 5672 5678 5680 5687 5691 5693 5701 5716 5718 5723 5722 5708 5704 5706 5720 5732 5737 5729 5728 5725 5713 5711 5707 5731 5756 5763 5762 5759 5766 5777
5611 5613 5616 5618 5621 5623 5625 5627 5628 5629 5630 5631 5630 5630 5634 5641 5658 5669 5672 5680 5675 5680 5687 5701 5714 5715 5715 5701 5700 5692 5689 5703 5709 5724 5727 5724 5719 5722 5702 5711 5706 5745 5758 5763 5760 5739 5771
5611 5613 5615 5618 5620 5622 5624 5626 5626 5627 5628 5628 5629 5628 5631 5639 5655 5664 5663 5670 5679 5677 5677 5687 5700 5703 5706 5688 5682 5679 5683 5693 5694 5705 5717 5708 5705 5708 5705 5709 5720 5750 5756 5758 5732 5743 5760
5612 5614 5616 5618 5620 5622 5623 5625 5626 5626 5626 5627 5627 5627 5628 5634 5651 5664 5670 5673 5674 5674 5673 5684 5686 5690 5687 5682 5680 5678 5677 5682 5687 5700 5702 5706 5696 5696 5695 5699 5713 5751 5745 5738 5747 5755 5760
5614 5616 5618 5619 5621 5623 5624 5624 5626 5626 5626 5626 5623 5625 5625 5625 5652 5664 5676 5682 5683 5684 5673 5677 5683 5685 5686 5680 5676 5674 5674 5673 5677 5685 5696 5691 5701 5700 5706 5709 5730 5740 5741 5747 5746 5747 5755